Theta_e
314 314 314 314 314 314 314 314 314 314 314 314 314 314 314 315 315 315 315 315 314 314 314 314 314 314 314 314 314 314 314 314 314 314 314 313 313 313 312 312 312 312 311 311 311 310 309 308 308 307 309 311 313 314 315 315 315 315 315 315 315 314 314 312 311 310 309 308 307 307 308 308 309 307 305 303 302 300 296 292 291 290 288 286 286
314 314 314 314 314 314 314 314 314 314 314 314 314 314 314 314 314 315 315 314 314 314 314 314 314 314 314 314 314 314 314 314 314 314 314 314 314 313 313 312 312 312 311 311 311 310 309 308 308 307 308 310 312 313 314 314 314 315 315 314 314 314 314 313 311 309 308 307 306 306 307 307 307 305 303 302 301 299 295 292 290 288 287 286 286
314 314 314 314 314 314 314 314 314 314 314 314 314 314 314 314 314 314 314 314 315 314 314 314 314 314 314 314 314 314 314 314 314 314 314 314 314 313 313 312 312 312 311 312 311 310 310 309 308 306 307 309 310 311 312 313 313 314 314 313 313 314 314 313 311 309 307 306 306 306 306 306 305 303 301 300 299 297 294 291 288 287 287 286 286
314 314 314 314 314 314 314 314 314 314 314 314 314 314 314 314 314 314 314 314 314 314 314 314 314 315 314 314 314 314 314 314 314 314 313 313 313 313 313 312 312 312 311 311 310 310 309 309 308 306 305 306 309 310 311 312 313 313 312 313 313 314 314 313 311 309 307 306 305 305 305 304 303 301 300 299 296 294 292 290 288 287 287 286 287
313 313 313 313 314 314 314 314 314 314 314 314 314 314 314 314 314 314 314 314 314 314 314 314 314 314 314 314 314 314 314 313 313 313 313 313 313 312 312 312 311 311 311 310 310 309 308 308 307 305 304 305 307 308 309 311 312 312 312 312 313 313 313 311 310 309 307 305 304 304 303 301 300 299 298 297 295 292 290 289 288 287 286 287 288
312 312 312 312 312 312 313 314 314 314 314 314 314 314 314 314 314 314 314 314 314 314 314 314 314 314 314 313 314 313 313 313 313 312 312 312 312 312 312 311 311 311 310 310 310 309 308 308 307 305 304 306 308 308 309 310 311 312 312 312 312 312 312 310 309 308 306 305 304 303 302 300 299 297 296 295 294 292 290 288 287 287 287 288 289
311 311 311 310 310 311 311 312 313 313 313 313 313 313 313 313 313 314 314 314 314 314 314 314 314 314 314 314 314 313 313 313 313 312 312 311 311 311 311 311 311 310 310 309 309 309 308 307 306 305 304 305 307 309 309 310 311 312 312 311 311 311 310 309 308 307 306 304 303 302 300 298 297 296 295 294 292 290 289 288 287 287 288 289 291
310 310 310 309 309 309 309 310 310 311 312 312 312 312 312 313 313 313 313 313 313 313 314 314 314 313 314 314 314 314 314 313 313 312 312 311 311 310 311 311 310 309 309 309 308 308 308 307 306 305 304 305 307 309 310 311 311 311 311 311 310 310 309 308 307 305 304 304 302 301 299 297 296 294 293 292 289 288 289 289 289 289 290 292 293
308 308 308 307 308 308 308 309 309 309 310 310 311 311 311 312 312 311 312 312 312 313 313 313 313 313 313 313 313 313 313 313 313 313 312 311 310 310 310 310 310 309 309 308 308 308 307 307 306 304 305 307 309 310 311 311 311 311 311 311 310 309 308 307 305 304 303 302 301 299 297 296 295 294 293 291 290 290 290 290 291 292 292 293 293
307 306 306 306 306 307 307 308 308 308 309 309 309 310 310 311 311 311 311 311 311 312 312 312 313 313 313 313 313 313 313 312 313 312 312 311 310 310 310 310 309 309 308 308 308 307 307 307 306 304 305 307 309 310 310 310 310 309 310 310 310 309 308 306 305 304 303 301 300 298 297 295 295 294 293 292 292 292 292 292 293 293 293 292 292
306 306 306 305 305 305 306 306 306 307 308 308 309 309 310 310 311 311 311 311 311 312 312 312 312 312 313 313 313 313 312 312 311 311 311 310 309 309 309 309 309 308 308 308 308 307 306 306 306 304 304 306 308 309 309 309 309 309 309 309 309 309 308 306 304 303 302 301 299 298 296 295 295 294 293 293 293 293 293 294 294 294 294 293 292
305 305 304 304 304 304 304 304 305 305 306 307 307 308 308 309 310 310 311 311 311 311 311 311 311 311 312 312 312 312 312 311 311 310 310 309 309 309 309 309 308 308 308 307 307 307 305 305 305 303 303 304 306 307 308 308 308 308 307 307 308 308 306 304 302 301 300 300 299 297 296 295 295 294 294 294 294 293 293 294 294 294 294 293 292
304 303 303 303 303 303 303 303 303 304 304 304 305 306 307 307 308 309 310 310 311 311 311 311 311 311 311 311 311 312 312 311 310 310 309 309 308 308 308 308 308 307 307 306 305 305 303 303 303 302 302 303 305 306 307 307 307 307 306 306 307 305 303 301 300 299 298 298 298 297 296 296 295 295 294 294 294 294 294 294 294 294 293 292 291
302 302 302 302 302 302 302 302 302 302 303 303 303 304 305 305 306 307 308 309 309 310 310 310 310 310 310 310 311 311 311 311 310 309 309 308 308 307 307 307 307 306 306 304 304 303 302 301 301 301 301 303 304 305 306 306 306 306 306 306 305 303 301 301 300 298 297 296 296 296 296 295 295 295 294 294 294 295 295 294 294 293 292 291 290
301 301 301 301 302 302 302 302 302 302 302 303 303 303 304 304 305 306 306 307 308 309 309 310 310 310 310 309 310 310 310 310 309 309 308 307 307 306 306 306 306 305 304 303 303 302 301 300 300 300 301 303 304 305 305 305 305 305 305 303 302 301 301 300 299 297 295 294 295 295 295 295 295 295 295 295 295 295 294 293 293 292 290 289 289
301 301 301 301 301 301 301 301 302 302 302 302 303 303 304 304 304 305 305 306 306 307 308 309 309 310 310 309 309 309 309 308 307 307 307 307 306 306 306 305 305 304 303 302 302 301 301 300 299 300 301 302 304 304 304 304 304 304 303 301 300 300 299 298 296 294 293 294 294 294 294 294 295 295 295 295 294 294 293 292 291 290 289 289 288
300 300 301 301 300 300 300 300 301 301 301 302 302 303 303 304 305 305 305 305 306 306 307 307 308 308 309 308 308 308 308 307 306 305 305 305 305 305 305 304 304 303 302 301 301 300 300 299 299 300 301 302 303 304 304 304 303 303 301 299 298 298 297 295 294 293 293 293 293 294 294 294 294 294 294 294 294 293 292 292 291 290 289 289 288
300 300 300 300 300 300 300 299 299 300 300 300 301 302 303 303 304 305 305 305 305 306 306 307 307 307 307 307 307 307 307 306 305 304 304 304 303 304 304 303 303 302 301 301 300 300 299 299 300 301 302 303 303 303 303 303 302 301 299 298 297 296 295 294 293 293 293 293 293 294 294 294 294 294 293 293 293 292 292 291 290 290 289 288 286
299 299 299 299 299 299 299 299 299 299 299 299 300 301 302 303 303 304 304 304 305 305 306 306 307 307 306 306 305 305 305 305 304 303 303 302 302 302 302 301 301 301 300 300 299 298 299 299 300 302 302 303 303 303 302 301 300 299 298 297 296 296 295 294 293 293 293 293 293 294 294 294 293 293 293 293 292 292 291 290 290 289 287 286 284
297 297 298 298 298 298 298 298 298 299 299 299 300 301 302 303 304 304 304 304 304 305 306 306 306 306 305 305 304 303 303 303 303 302 302 301 301 300 300 300 300 299 299 299 298 298 298 299 300 301 302 302 302 301 300 299 298 298 297 296 296 296 294 293 293 293 293 293 294 293 293 293 293 293 293 292 292 291 290 289 288 287 285 284 283
296 296 296 296 297 297 297 297 297 298 298 299 299 300 300 302 304 304 305 305 304 304 305 305 305 305 305 304 303 302 302 301 301 301 300 300 300 299 299 299 299 298 298 298 298 299 299 299 300 301 301 301 299 298 298 298 297 297 296 296 296 295 293 293 293 293 293 293 293 293 293 293 292 292 292 292 291 290 289 288 286 284 283 283 282
295 295 295 295 295 296 295 296 296 296 297 298 298 298 299 301 303 304 305 305 304 304 305 305 305 305 304 303 302 301 300 300 299 299 299 298 298 298 298 298 298 298 298 298 298 299 299 299 299 300 299 298 297 296 296 296 295 295 294 294 294 293 293 293 293 293 293 292 292 292 292 292 292 292 292 291 290 289 287 286 284 283 282 282 281
294 294 294 294 294 294 294 294 295 295 297 298 298 298 299 301 303 304 305 305 304 304 304 303 303 303 303 303 301 300 299 298 298 297 297 297 297 297 296 296 297 297 297 297 298 298 298 298 298 298 298 296 295 295 294 294 293 292 292 292 292 292 292 293 292 292 292 292 292 292 292 292 291 291 291 290 289 287 285 284 283 282 281 281 281
293 293 294 294 294 294 294 294 294 294 296 297 298 298 299 300 301 302 303 304 303 303 303 302 302 302 302 302 301 299 298 297 296 295 295 295 295 296 296 296 296 296 297 297 298 298 297 297 297 296 296 295 295 294 293 293 292 291 291 291 291 291 292 292 292 292 292 291 291 291 291 291 291 291 290 288 287 285 283 282 282 281 281 281 281
292 292 292 293 293 293 293 293 293 293 295 297 299 299 300 301 301 300 301 302 303 303 302 301 301 300 300 299 299 298 296 295 295 294 294 295 295 295 295 295 295 296 296 296 296 295 295 294 293 293 293 293 293 292 292 292 292 290 290 290 291 291 292 292 291 291 291 291 291 291 290 290 290 289 288 286 285 283 282 281 281 281 281 280 280
292 292 292 292 292 292 292 292 293 293 295 297 299 300 300 301 300 300 300 301 302 302 301 300 300 299 299 297 296 295 295 295 294 294 294 294 294 294 295 295 295 294 294 294 293 293 292 292 292 292 291 291 291 291 290 290 290 289 289 290 290 291 292 291 291 291 291 290 290 290 290 290 289 288 286 285 283 282 281 281 281 280 280 280 280
291 291 292 292 292 292 292 292 292 293 295 298 300 300 300 301 300 300 300 300 300 300 300 299 298 298 297 296 295 294 295 295 294 294 294 293 293 293 293 293 293 293 292 292 292 291 291 291 291 290 290 290 289 289 289 289 288 288 289 290 290 291 291 291 291 291 290 290 290 290 290 289 288 287 285 283 282 281 281 281 280 280 280 280 279
291 291 291 291 292 292 292 292 292 293 295 297 299 300 300 300 300 300 300 299 298 298 298 297 297 296 296 295 294 294 295 295 295 294 294 293 292 292 292 291 291 291 291 291 290 290 290 290 289 289 289 288 288 288 288 288 287 288 289 290 291 291 290 290 290 290 290 290 289 289 289 288 287 285 283 282 281 281 281 280 280 280 280 279 279
290 290 291 291 291 292 292 292 292 292 294 296 298 300 300 300 299 299 299 298 297 296 296 296 296 295 294 294 294 293 294 294 294 294 294 293 292 292 291 291 290 290 290 290 289 289 289 289 288 288 288 288 288 288 288 287 287 288 289 290 290 290 290 290 290 289 289 289 289 289 288 287 285 284 282 282 281 281 280 280 280 280 279 279 279
290 290 290 290 291 291 292 292 292 292 293 295 297 299 300 300 299 299 299 298 296 295 295 295 294 294 293 294 293 292 292 293 293 293 292 292 291 291 290 289 289 289 288 288 288 288 288 287 287 287 287 287 287 287 287 287 288 289 290 290 290 289 289 289 289 289 289 289 288 288 288 286 284 283 282 281 281 280 280 280 279 279 279 278 278
290 290 290 290 291 291 292 292 292 292 293 295 297 298 299 300 299 298 298 297 296 295 295 294 293 292 292 293 292 291 291 292 292 292 291 290 290 289 289 288 288 287 287 287 287 287 287 286 286 287 287 287 287 287 287 288 289 290 290 289 289 289 289 289 289 289 289 288 288 288 287 285 283 282 281 281 280 280 280 279 279 279 278 278 277
290 290 290 290 291 291 292 292 292 293 293 295 297 298 298 298 299 299 298 296 296 295 294 294 293 292 291 291 291 291 291 291 290 290 290 290 289 289 288 287 287 287 287 287 287 287 286 286 287 287 287 287 287 287 288 289 289 290 290 289 289 289 289 289 289 289 288 288 288 287 286 283 282 281 281 280 280 280 279 279 278 278 278 277 276
290 290 290 290 291 291 292 292 292 293 294 294 295 296 295 296 297 297 297 296 296 295 294 293 292 291 291 290 290 290 290 290 289 289 289 288 288 288 287 287 287 287 286 286 286 287 286 286 287 287 287 287 287 288 288 289 290 289 289 290 290 289 289 289 289 288 288 287 287 286 284 282 281 281 280 280 280 280 279 279 278 278 277 277 276
289 290 290 290 290 291 291 292 292 292 292 293 293 293 294 295 295 296 296 295 295 294 293 292 291 291 290 290 290 290 289 289 288 288 288 287 287 287 286 286 286 286 286 286 286 287 287 286 287 287 287 287 287 288 288 289 289 289 290 290 289 289 289 288 288 288 287 287 286 285 283 281 280 280 280 280 280 279 279 278 278 277 277 276 276
289 289 289 289 289 290 291 291 291 292 292 292 292 292 293 295 295 294 293 292 292 292 292 291 290 289 289 289 289 289 289 288 288 287 286 286 286 286 286 286 286 286 286 286 286 286 287 287 287 287 287 287 287 288 289 289 289 289 289 289 289 289 288 288 288 287 287 286 286 284 282 281 280 280 280 279 279 279 278 278 277 277 276 276 275
289 290 290 289 289 290 290 291 291 291 291 291 291 292 293 294 295 294 292 291 290 290 290 290 289 288 288 288 288 288 288 287 286 286 286 286 286 286 285 285 285 286 286 285 286 286 286 286 287 287 287 287 287 288 288 289 289 289 289 289 288 288 288 288 287 287 286 286 285 284 282 280 280 279 279 279 279 278 278 277 277 277 276 276 275
289 289 289 289 289 289 290 290 290 290 290 290 291 292 293 294 294 293 291 290 289 289 289 288 288 288 287 287 287 287 287 286 285 285 285 285 285 285 285 285 285 285 285 285 285 285 286 286 286 286 287 287 287 287 288 288 289 289 289 288 288 288 288 287 286 286 285 285 284 283 281 280 279 279 278 278 278 278 278 277 277 277 276 275 275
288 289 288 288 288 288 289 289 289 289 289 289 290 291 292 293 293 292 290 289 288 288 288 287 287 287 287 287 286 286 286 285 285 284 284 284 285 285 284 285 285 285 285 285 285 285 285 285 285 286 286 286 287 287 288 288 288 288 288 288 288 287 287 286 286 286 285 284 283 281 280 279 279 278 278 278 278 278 277 277 277 276 276 275 274
288 288 288 287 287 287 287 286 287 287 288 289 289 290 290 291 291 290 289 288 287 287 287 287 287 287 287 286 286 286 285 285 284 284 284 284 285 284 284 284 284 285 285 285 285 285 285 285 285 285 285 285 286 286 287 287 287 287 287 287 287 287 287 286 286 285 284 283 282 280 279 279 278 278 278 278 278 277 277 276 276 276 275 274 274
287 288 288 287 286 286 285 285 285 286 287 288 288 288 288 289 290 289 287 287 286 286 286 286 286 287 287 286 286 286 285 285 284 284 284 285 285 285 285 284 285 285 285 285 286 285 285 285 285 285 286 286 286 286 286 286 287 287 287 287 286 286 285 285 284 284 283 282 280 279 279 278 278 278 278 277 277 276 276 276 275 275 274 274 273
285 286 286 286 285 285 285 284 285 285 286 287 287 287 287 288 288 287 286 286 286 286 286 286 286 286 286 287 286 286 285 285 285 284 284 285 285 285 285 285 285 285 285 285 286 286 286 286 286 286 286 286 286 286 286 286 287 286 286 286 285 285 284 284 283 283 282 281 279 279 278 278 277 277 277 276 276 276 276 275 275 275 274 273 273
283 284 285 285 284 284 285 285 285 285 285 286 286 286 286 286 286 286 285 285 285 285 285 285 286 286 286 287 287 286 285 285 285 285 285 285 285 285 285 285 284 284 284 284 284 285 285 285 286 286 286 286 286 286 286 286 285 285 285 284 284 284 284 283 282 281 280 279 279 278 277 277 277 276 276 276 275 275 275 275 274 274 273 273 273
282 283 283 284 284 283 284 284 284 285 285 285 286 285 285 285 285 285 284 284 284 284 285 285 285 285 286 287 287 287 286 285 285 285 285 285 285 285 285 285 285 285 285 284 284 284 284 285 285 285 285 285 285 285 285 284 284 284 284 284 284 283 283 282 280 279 279 278 277 277 277 276 276 276 275 275 275 275 274 274 274 273 273 273 272
282 282 283 283 283 283 283 283 283 284 284 284 285 285 284 284 284 284 284 284 284 284 284 284 285 285 286 286 287 287 286 286 286 286 286 286 286 286 286 285 285 285 286 285 285 285 285 285 285 285 285 284 284 284 283 283 283 283 283 282 282 281 280 279 278 278 277 277 277 276 276 276 275 275 275 275 274 274 274 274 273 273 273 272 272
280 281 281 282 282 282 282 282 283 283 283 283 284 284 284 283 283 283 283 283 284 284 284 284 285 285 286 286 286 287 287 287 287 287 287 286 286 286 286 286 285 285 285 285 285 285 285 285 284 284 284 283 283 283 283 282 282 282 281 280 280 279 278 278 277 277 277 276 276 276 275 275 275 275 274 274 274 274 273 273 273 273 272 272 271
279 279 279 280 280 281 281 282 282 282 283 283 283 283 283 283 282 282 282 283 283 284 284 284 285 285 286 286 286 286 286 286 286 286 286 286 286 286 286 285 285 285 285 285 285 285 285 284 284 283 283 282 282 282 281 281 280 280 280 279 278 278 278 277 277 276 276 276 275 275 275 275 274 274 274 274 274 273 273 273 272 272 272 271 271
277 277 278 279 279 280 280 281 281 281 281 282 282 282 282 282 281 281 282 282 283 283 284 284 285 286 286 286 285 286 286 286 286 286 286 286 286 286 285 285 285 285 285 285 284 284 284 283 283 283 282 282 281 281 280 280 279 279 278 278 278 277 277 276 276 276 275 275 275 275 275 275 274 274 274 274 273 273 273 272 272 271 271 270 270
276 276 277 277 278 278 279 279 280 280 280 280 280 281 281 280 280 281 281 282 282 283 283 283 285 285 285 285 285 285 285 286 286 286 286 286 286 285 285 285 285 285 285 284 284 283 283 282 282 282 281 281 281 280 280 279 278 278 277 277 277 276 276 276 276 275 275 275 275 275 274 274 274 274 274 274 273 273 272 272 271 271 270 270 270
275 275 275 276 277 277 277 278 278 278 279 279 279 280 280 279 279 280 281 281 282 282 283 283 284 285 284 284 284 284 285 285 285 286 286 286 286 285 285 285 284 284 284 283 283 282 282 282 281 281 281 280 279 279 278 277 277 277 276 276 276 276 276 276 275 275 275 275 275 274 274 274 274 274 273 273 272 272 272 271 271 270 270 269 269
274 274 274 275 275 276 276 276 277 277 277 278 278 279 279 279 279 279 280 281 281 281 282 283 284 284 283 283 283 284 285 285 285 285 285 285 285 285 284 284 284 283 282 282 282 281 281 281 280 280 279 278 278 277 277 276 276 276 276 276 276 275 275 275 275 275 275 275 275 274 274 274 273 273 273 272 272 271 271 270 270 269 269 269 268
273 274 274 274 274 275 275 276 276 276 277 277 278 278 279 278 278 279 280 280 280 281 282 283 283 282 282 281 282 283 284 284 284 284 284 284 284 284 283 283 282 282 281 281 281 281 280 279 279 278 277 277 276 276 276 276 276 276 276 275 275 275 275 275 275 275 275 274 274 274 273 273 273 272 272 271 271 270 270 269 269 269 268 268 268
Wind_Speed
18 19 20 20 21 22 23 24 24 24 23 23 23 22 22 23 25 26 27 27 27 29 30 31 31 32 33 34 34 35 35 35 35 35 36 37 37 37 38 38 39 39 38 37 37 37 38 39 41 42 44 46 47 47 47 45 43 44 47 48 48 48 49 49 52 54 52 49 47 45 41 38 36 34 29 25 25 27 31 35 35 34 34 35 35
18 19 19 19 20 20 21 22 23 23 23 23 23 23 23 24 25 27 29 28 29 29 30 30 30 31 33 34 34 35 36 36 37 38 39 40 40 40 40 39 40 40 39 38 38 37 37 38 40 41 42 45 47 47 47 44 42 44 46 44 45 46 46 47 50 50 49 48 46 44 41 39 36 33 28 25 24 26 30 36 37 36 36 36 35
18 19 19 19 20 20 20 20 21 22 23 23 24 24 24 25 25 27 28 28 29 30 30 31 31 32 33 34 35 35 36 36 37 38 40 40 42 42 42 41 41 41 40 39 38 37 38 39 40 40 41 44 46 46 45 44 43 44 43 42 44 45 44 44 46 47 47 47 45 43 41 38 35 30 26 24 23 24 30 37 38 37 37 36 33
17 18 19 19 20 19 20 20 21 21 22 23 23 24 25 25 26 27 28 28 29 29 30 31 32 33 35 35 36 36 37 37 38 39 40 40 42 43 43 42 42 42 41 40 39 38 38 40 40 39 40 43 45 45 45 45 45 45 44 45 46 43 41 42 43 44 45 45 44 42 39 36 32 27 24 23 23 24 30 36 37 36 35 33 32
17 19 19 20 20 19 20 20 21 22 23 24 24 25 26 26 27 28 28 29 30 30 31 32 33 34 35 36 36 37 38 39 40 40 40 40 42 43 42 42 42 42 42 41 40 38 39 40 40 38 38 40 42 43 44 44 45 45 45 44 43 40 39 40 41 41 43 44 43 41 37 32 28 25 24 24 25 26 31 34 35 34 33 31 32
19 20 21 22 22 22 22 22 23 24 25 26 27 27 28 29 29 30 31 32 32 33 33 34 35 36 37 38 38 39 39 40 41 41 41 41 42 43 42 42 42 42 42 42 40 39 39 40 40 37 36 38 40 40 40 41 42 43 42 41 40 39 38 39 39 39 41 43 42 40 36 32 27 25 24 25 26 29 33 35 34 32 31 32 34
21 22 24 25 26 26 26 26 26 27 27 28 29 29 30 31 32 32 33 34 35 35 35 35 36 37 39 40 41 41 41 41 41 41 41 41 42 43 43 43 42 41 41 41 40 39 39 40 39 37 36 38 39 38 38 40 40 41 40 38 38 37 37 38 38 39 40 41 40 38 35 31 27 25 24 24 25 29 33 35 34 33 34 35 34
23 25 26 27 28 29 29 29 29 29 30 30 31 31 32 33 33 33 34 34 35 35 36 36 37 37 38 39 41 42 43 43 43 41 40 40 41 41 42 42 42 41 40 40 40 39 39 39 38 36 34 35 37 38 39 38 37 37 35 34 34 34 35 36 37 37 38 38 38 36 33 31 29 26 25 26 28 31 32 33 33 34 34 32 29
26 27 28 28 29 30 30 31 31 31 31 31 32 33 33 34 35 35 34 34 35 35 36 37 37 38 38 38 39 40 42 43 43 41 39 38 38 39 40 41 41 41 40 40 39 39 39 39 38 35 33 33 35 36 36 35 33 32 32 31 32 33 33 33 34 35 36 36 36 34 32 31 31 29 28 29 31 32 32 31 30 30 29 26 23
28 29 30 31 31 32 33 33 34 34 34 33 33 34 34 34 35 35 35 35 36 36 37 37 38 38 39 39 39 39 40 40 40 39 38 37 37 37 38 40 40 40 39 39 40 39 39 39 39 35 33 34 35 35 34 35 35 35 35 33 32 32 31 31 31 31 33 35 35 34 33 33 32 31 30 30 30 30 30 30 27 25 24 22 21
29 30 31 32 33 34 35 37 37 38 38 38 38 38 38 37 37 36 36 36 36 37 37 38 38 39 39 40 40 40 40 39 37 37 36 35 35 36 37 38 39 39 39 40 40 40 39 40 39 36 34 35 35 35 34 34 34 33 33 32 32 32 32 31 29 29 31 33 33 33 33 33 32 30 29 29 28 28 27 25 24 23 23 22 21
28 30 31 32 33 35 36 37 39 40 41 42 42 42 42 42 42 41 40 40 39 39 39 39 39 39 40 41 42 42 41 39 37 36 34 33 33 34 36 38 38 39 39 40 40 40 40 41 39 35 33 34 35 35 35 34 33 32 32 32 33 34 33 30 27 26 27 29 30 31 31 31 30 28 27 27 26 25 24 23 22 22 22 21 20
29 30 31 32 34 35 36 37 38 39 41 42 43 44 44 45 45 45 45 44 43 43 43 43 42 42 41 41 42 43 43 41 39 36 35 33 32 33 35 37 38 39 39 39 39 39 39 40 39 34 32 33 34 34 33 33 33 34 36 36 35 33 29 26 24 23 21 23 25 26 27 27 27 26 25 24 24 23 23 23 22 21 20 19 19
29 30 31 32 34 35 36 37 37 39 40 41 42 43 44 45 46 46 46 46 46 46 46 46 46 45 44 43 43 43 42 42 41 38 36 34 33 32 34 36 37 38 38 38 38 38 38 39 38 34 32 33 33 33 32 32 33 34 34 34 32 30 28 27 26 24 20 18 18 20 22 23 22 21 22 22 22 21 21 21 21 21 19 18 17
29 29 31 32 33 34 35 36 37 38 39 39 40 41 43 44 45 46 47 48 48 48 47 47 47 47 47 47 46 45 42 39 39 39 37 35 34 33 34 36 37 38 39 38 37 38 38 38 36 33 33 34 32 31 31 33 33 31 29 29 29 28 27 27 26 21 18 16 16 16 17 18 18 20 22 23 22 20 18 16 17 19 19 17 16
28 29 29 30 31 32 34 35 36 37 38 39 40 40 42 43 44 46 47 48 49 49 49 49 48 48 48 48 48 49 45 39 37 37 36 35 34 34 35 36 37 39 39 38 38 39 38 36 34 32 33 33 32 31 32 33 31 28 27 27 26 25 25 24 21 16 15 15 15 15 15 18 20 21 22 23 22 21 19 18 19 19 17 15 14
27 28 28 29 30 31 32 34 35 36 37 38 39 40 41 42 43 45 46 48 49 49 50 51 50 49 48 48 48 49 48 43 38 36 35 33 33 35 36 36 38 39 40 39 39 38 36 34 33 32 33 32 31 31 32 32 30 28 27 26 24 24 24 22 18 16 16 15 15 17 19 22 22 21 21 22 21 21 21 19 18 16 14 13 13
27 28 29 29 30 31 32 34 35 36 37 37 38 40 40 41 43 44 46 48 49 49 50 50 50 49 48 48 47 47 49 45 39 36 35 33 33 34 36 37 38 39 39 39 37 35 34 33 32 33 33 32 31 32 32 31 29 27 25 25 25 25 24 23 21 20 20 20 21 22 23 24 22 20 19 19 19 19 17 15 14 13 13 13 13
28 29 30 31 32 33 34 35 36 36 37 37 38 39 40 41 42 44 46 47 49 49 49 50 50 50 48 47 46 45 46 45 40 36 34 33 32 33 34 36 37 38 38 38 36 34 34 33 32 32 32 31 31 32 31 28 26 25 25 26 27 26 25 24 25 27 27 27 27 26 24 23 22 20 18 18 17 17 15 14 13 13 13 13 14
29 30 31 32 32 33 34 35 36 37 38 39 39 40 40 41 42 43 45 46 48 49 49 49 50 51 49 47 46 44 43 42 39 35 32 32 31 31 32 34 35 36 36 36 35 35 34 33 32 31 30 30 30 29 27 25 24 24 24 25 26 26 26 27 28 30 31 30 28 26 23 22 20 18 16 16 15 15 15 14 13 13 13 14 14
31 32 33 33 33 34 34 35 36 36 37 38 39 40 40 41 42 44 44 45 47 48 48 48 50 51 50 48 45 43 40 38 37 33 31 30 29 29 31 33 34 35 36 36 35 35 35 33 31 30 29 28 27 26 25 24 23 23 23 23 24 26 28 30 30 29 29 28 26 24 21 19 17 15 14 14 14 15 15 14 14 14 14 14 13
34 35 35 36 36 36 36 36 36 36 37 38 39 40 40 41 42 43 44 45 46 47 47 47 47 48 49 47 45 42 38 35 33 31 29 28 27 28 30 32 33 34 35 35 35 35 34 33 31 29 27 25 22 22 22 22 21 21 22 23 25 27 29 31 31 29 27 25 23 21 18 16 14 13 13 14 15 15 15 15 15 15 15 13 12
36 37 37 38 38 38 38 38 38 38 38 38 40 41 41 41 41 42 43 45 47 47 47 46 46 46 47 46 44 41 37 33 30 28 27 26 26 27 29 30 32 34 34 35 35 34 34 32 30 28 24 21 19 18 19 19 19 21 24 25 27 28 30 31 30 28 25 22 20 17 15 12 11 11 14 15 16 15 16 17 16 15 14 13 12
39 39 39 40 40 40 41 41 40 40 39 39 40 40 40 41 41 42 43 45 46 47 47 46 45 45 45 45 43 39 34 30 27 26 25 26 27 28 29 30 31 33 34 34 34 34 32 30 27 24 20 18 17 17 18 18 19 23 27 28 28 30 32 31 29 26 23 20 17 14 11 9 9 11 15 16 16 16 17 16 15 14 13 12 12
40 41 41 41 41 41 42 42 41 41 40 39 39 40 40 40 41 42 43 44 45 46 47 47 46 45 44 43 42 38 32 26 24 23 24 26 27 27 28 29 30 31 32 32 31 29 27 24 21 18 16 16 16 17 19 19 20 26 30 30 31 32 32 30 27 23 19 16 14 10 8 8 11 14 16 16 16 16 16 16 15 14 13 13 13
39 40 40 40 40 40 41 41 41 40 40 38 38 38 38 39 40 42 42 42 43 44 45 46 45 44 42 41 39 37 32 27 23 22 23 26 27 27 27 28 29 29 28 27 26 24 22 21 18 16 15 15 17 19 21 20 22 28 32 31 31 33 31 26 22 18 15 12 10 8 7 10 14 16 16 16 17 17 16 15 15 14 13 13 14
40 40 40 40 40 40 41 41 42 42 41 40 39 38 38 38 39 41 41 41 41 42 43 43 43 43 41 39 37 35 33 29 25 22 23 25 26 27 27 27 27 27 26 25 23 21 19 18 16 14 14 15 18 21 22 22 25 30 32 30 29 29 25 20 16 13 11 9 7 7 8 12 15 17 17 17 18 17 17 16 15 14 14 14 15
42 43 42 42 42 42 42 43 43 43 43 42 41 40 39 38 39 39 39 38 39 40 40 40 40 39 37 36 36 35 34 31 27 25 23 23 24 24 24 24 25 25 25 23 20 18 16 15 13 13 15 19 23 24 25 25 27 29 29 28 28 26 21 17 14 11 8 6 5 6 10 13 16 17 17 17 17 17 16 16 15 15 15 15 15
45 45 45 45 45 44 44 44 44 44 44 44 44 43 41 40 40 40 38 36 36 36 36 37 36 34 32 32 32 33 34 32 28 25 24 22 22 21 21 21 21 21 21 19 16 15 14 13 14 16 21 25 27 28 29 29 29 28 28 29 27 23 18 15 11 8 6 5 6 8 11 14 17 17 17 17 17 17 17 16 16 16 16 16 15
47 47 47 46 46 45 45 45 45 44 44 45 46 45 44 42 41 40 39 36 34 33 33 33 32 31 31 30 29 31 33 30 26 24 22 20 19 17 17 17 16 15 15 14 13 13 12 14 17 21 25 27 28 29 30 30 30 31 30 28 23 19 16 13 10 8 7 7 8 10 12 15 17 17 17 17 17 17 17 16 17 17 16 16 15
48 48 48 47 46 45 45 45 44 44 43 44 45 46 46 45 42 40 38 36 35 33 32 31 30 29 30 31 29 29 30 29 26 23 20 17 15 14 13 12 11 11 12 12 12 12 14 17 22 24 25 26 28 29 28 29 31 31 28 24 20 17 14 13 12 10 8 9 10 12 14 16 16 16 16 17 17 17 17 17 17 17 17 16 16
47 48 48 47 46 45 44 44 44 43 43 43 44 44 44 44 44 41 38 35 35 34 33 32 30 28 29 30 29 28 28 26 24 21 17 14 12 11 10 9 9 9 9 10 11 13 17 21 25 25 25 27 28 27 27 29 30 27 23 20 18 15 14 13 12 10 10 11 12 13 15 16 16 16 16 18 18 18 18 18 18 17 17 17 17
45 46 47 47 46 45 45 44 44 44 43 43 44 44 43 42 42 42 40 37 35 34 33 31 30 29 28 28 28 27 25 22 20 16 13 10 9 8 8 9 8 8 10 11 12 15 19 24 26 26 26 26 26 26 27 28 26 21 19 17 15 14 13 13 12 11 12 13 13 14 16 16 16 17 18 19 19 19 18 18 18 18 18 18 18
44 45 45 45 45 45 45 44 44 43 43 42 42 42 42 41 40 40 39 38 37 35 32 30 29 28 27 26 26 25 22 19 15 12 10 8 7 7 8 7 7 9 11 12 12 15 20 24 26 26 26 25 24 25 26 25 20 17 16 15 14 14 13 13 13 14 15 15 15 16 17 16 17 18 19 19 19 19 18 18 18 18 19 18 18
45 45 45 44 44 45 45 44 43 43 42 41 41 40 40 40 40 39 37 36 35 34 32 30 28 27 26 25 23 22 18 15 12 10 9 8 8 8 9 9 11 13 14 13 12 15 18 21 24 25 25 24 23 24 25 22 18 15 15 15 15 14 14 14 15 16 16 16 17 18 18 18 18 19 19 20 19 18 18 18 18 19 20 20 19
46 46 46 45 45 44 45 44 43 42 41 40 40 39 39 40 40 39 36 34 33 32 31 29 27 25 24 22 21 18 14 11 10 9 8 8 9 10 11 13 15 17 16 12 12 15 17 19 21 22 22 22 22 23 24 22 18 16 16 15 15 15 15 16 17 17 17 17 18 18 18 18 19 19 19 19 18 18 18 18 19 20 21 21 20
46 46 46 46 45 45 45 45 43 42 40 39 38 39 39 40 39 38 35 33 31 30 30 28 26 25 23 20 18 14 11 10 9 9 8 9 10 11 12 14 17 16 13 11 11 13 14 16 17 18 20 21 22 23 24 23 21 18 17 16 16 17 17 17 18 17 17 17 18 18 19 19 19 19 19 18 18 18 18 19 21 21 21 21 21
46 46 45 44 44 44 44 44 43 41 40 38 37 37 38 39 38 36 34 31 29 29 28 27 25 24 21 18 15 13 12 10 10 9 9 10 12 12 11 12 13 12 10 9 10 10 11 11 13 14 16 19 20 22 22 22 21 20 19 19 19 19 20 20 20 19 18 18 18 18 19 19 18 18 18 18 18 19 20 21 22 22 21 21 21
47 46 45 44 43 42 42 42 41 40 39 38 37 36 37 38 37 34 31 29 27 28 27 26 24 23 19 16 15 14 13 13 13 12 13 14 14 12 10 10 10 9 8 8 9 9 9 10 10 12 14 16 18 19 20 21 21 21 22 22 22 23 22 22 20 19 19 18 19 18 18 18 18 18 18 18 19 20 21 22 22 21 21 21 20
48 47 46 44 43 42 41 40 40 39 38 38 37 36 35 36 35 32 29 27 26 27 26 24 23 21 18 16 16 16 16 16 16 15 15 16 15 13 11 9 8 8 7 7 8 9 9 10 11 12 13 15 17 18 20 21 22 23 24 24 24 23 21 20 18 18 18 18 18 18 18 18 18 18 18 19 19 20 21 21 21 21 21 21 20
46 46 45 44 43 42 41 39 38 38 37 38 37 35 34 34 32 29 26 25 26 26 24 23 22 20 17 16 17 19 20 19 18 16 16 17 17 15 13 10 10 9 9 9 9 10 11 12 12 13 14 16 17 19 21 22 24 24 24 23 22 20 18 17 17 17 17 17 17 17 17 18 18 18 18 19 19 20 21 21 21 21 20 20 19
43 44 44 43 42 42 41 40 38 36 36 37 36 34 32 31 28 26 25 24 24 24 24 23 22 20 18 18 19 21 21 20 18 17 16 16 16 15 14 12 11 11 11 12 13 13 14 15 15 15 16 17 19 20 21 22 22 21 20 19 18 17 16 16 16 16 17 17 17 17 18 18 18 18 18 19 20 20 20 20 20 20 19 19 19
41 41 42 42 42 41 40 39 38 36 36 35 34 32 29 27 25 24 23 23 23 23 23 23 21 20 19 19 19 21 22 21 20 18 17 15 15 14 13 13 12 11 11 13 14 15 15 15 15 16 16 17 18 19 19 18 17 17 16 15 15 15 15 15 15 16 16 16 17 17 17 17 18 18 18 19 19 19 19 19 19 19 19 19 19
38 39 40 41 41 40 39 37 36 35 34 34 32 30 27 25 24 23 23 22 22 22 22 22 21 20 19 19 19 20 20 20 19 18 17 15 14 14 14 14 13 12 12 12 13 14 15 15 15 15 14 14 15 15 15 15 14 14 13 13 14 14 14 14 14 15 15 16 16 16 17 17 17 17 18 18 18 18 18 18 18 19 19 19 19
37 37 38 39 39 39 38 36 34 33 32 32 31 29 26 24 23 22 22 22 22 21 21 21 20 19 18 18 18 18 17 16 15 14 14 14 13 13 14 14 13 13 12 12 12 13 13 14 13 12 11 11 11 11 12 12 12 12 13 13 13 13 13 14 15 15 16 16 16 16 16 17 17 17 18 18 18 18 18 18 18 19 19 19 19
35 35 36 37 38 38 37 35 32 31 29 29 29 28 25 22 21 21 22 23 22 22 21 21 19 18 17 17 16 16 14 13 12 12 12 12 12 13 13 13 13 13 12 11 11 11 11 12 12 11 10 10 10 10 11 11 12 12 12 13 13 14 14 15 15 16 16 16 16 16 16 16 17 17 18 18 18 18 18 18 18 18 18 18 18
33 33 33 34 35 35 35 33 31 29 27 26 26 25 22 20 20 21 22 23 22 22 21 20 19 18 17 17 16 14 13 12 11 11 11 12 13 13 14 14 13 13 12 11 10 10 10 11 11 10 10 10 10 11 11 12 12 13 13 14 14 15 15 15 16 15 15 16 16 16 17 17 17 17 17 17 18 18 18 17 17 17 17 18 18
31 31 31 31 32 32 32 31 29 27 25 24 23 21 19 19 19 20 21 22 22 22 21 19 18 18 18 17 16 14 14 13 13 12 12 12 13 13 14 14 13 13 12 11 11 11 11 11 10 10 11 11 11 12 12 13 13 14 14 14 15 15 15 15 15 15 16 16 16 16 16 16 16 17 17 17 17 17 17 17 17 17 18 18 18
30 30 30 29 29 28 28 27 26 24 23 21 20 18 17 17 19 20 20 21 22 21 20 18 18 18 18 17 16 15 15 14 14 13 13 13 13 13 13 13 13 12 12 12 12 12 12 11 11 11 11 12 12 12 13 13 13 14 14 14 14 14 15 15 16 16 16 16 16 16 16 16 16 16 16 16 17 17 17 17 17 17 18 18 18
29 28 28 27 26 25 24 23 22 21 20 19 18 16 15 16 18 19 19 20 21 21 19 18 18 18 17 17 16 15 15 15 14 14 14 13 13 13 12 12 12 12 12 12 12 11 11 11 11 12 12 12 12 12 12 13 13 14 14 14 14 15 15 15 15 15 15 15 15 16 16 16 16 16 16 16 16 16 16 17 17 17 18 18 18
28 27 26 25 23 22 20 19 17 17 16 16 15 14 14 15 16 17 18 19 19 19 17 17 17 17 17 17 16 15 15 15 14 14 13 13 13 13 12 12 12 11 11 11 11 11 11 12 12 12 12 12 12 12 12 13 13 14 14 14 14 15 15 15 15 15 15 15 15 16 16 16 16 16 16 16 16 16 16 17 17 17 17 18 18
Wind_Direction
326 326 325 324 322 322 320 319 318 317 318 318 318 319 315 307 300 294 290 290 289 288 288 288 289 290 290 290 290 289 287 286 285 284 282 280 279 278 277 276 275 277 278 279 280 279 277 274 270 267 262 262 265 267 270 272 271 269 270 271 271 270 269 266 264 266 267 265 264 264 264 265 267 268 264 260 254 243 232 226 224 220 217 220 223
329 329 332 332 330 328 323 319 316 314 315 315 314 314 313 310 306 301 297 295 292 290 289 289 289 290 289 289 290 289 288 288 287 286 285 284 283 281 280 278 278 279 280 281 282 281 279 277 274 270 264 262 263 264 267 269 271 272 271 270 273 273 271 269 268 266 264 263 262 262 263 265 265 264 262 259 253 241 227 219 217 216 217 221 222
336 337 338 340 338 335 331 325 321 317 316 314 313 312 310 308 307 304 302 301 297 293 291 289 288 288 287 286 287 286 286 285 285 284 284 284 284 283 282 280 279 279 280 281 282 281 279 278 277 273 265 261 262 263 265 268 270 270 270 272 275 275 274 274 272 267 264 261 261 262 262 263 263 261 259 254 245 234 223 216 214 215 217 219 222
343 342 342 342 339 335 331 327 325 324 322 321 320 318 316 313 309 305 302 300 297 294 291 289 287 286 284 284 283 282 282 282 281 280 280 281 281 281 281 280 280 280 280 280 281 281 279 278 279 277 268 261 261 262 264 266 268 270 271 273 274 275 277 277 273 269 265 260 260 261 261 260 259 257 253 243 232 223 218 215 214 216 217 218 222
347 346 345 344 341 336 332 328 326 326 326 327 326 325 323 321 317 313 308 303 299 296 293 290 288 285 284 283 282 280 280 279 278 278 278 277 277 277 277 278 278 279 279 279 279 280 280 280 280 278 270 264 262 262 264 265 267 269 271 272 274 276 278 275 271 269 263 259 258 258 257 255 253 251 244 235 226 216 211 212 215 215 216 218 224
346 344 343 341 339 335 331 328 325 324 324 324 324 324 324 322 321 320 317 313 310 306 301 296 293 291 289 287 286 284 283 282 280 278 278 277 276 276 275 276 277 278 278 278 278 279 280 281 281 277 269 264 264 264 265 265 267 270 272 274 276 278 277 274 271 268 263 259 257 256 255 252 247 241 233 229 227 216 205 205 210 213 215 221 228
341 340 338 337 336 333 330 326 323 321 320 320 320 320 320 320 319 319 319 318 316 313 309 305 301 297 294 293 291 290 289 287 285 283 281 280 278 278 277 276 276 277 278 278 278 278 279 282 282 276 267 263 263 265 266 266 267 269 271 273 273 275 275 274 271 267 262 257 254 253 251 247 242 236 230 224 219 213 207 205 205 209 216 223 230
340 339 337 336 335 333 332 329 325 322 320 318 317 316 316 316 316 316 316 316 315 314 312 309 306 303 300 297 294 293 291 290 288 287 284 282 280 279 278 277 277 277 277 278 278 278 280 281 282 277 270 265 263 265 266 266 267 268 270 271 272 273 274 272 269 265 261 256 252 249 245 242 236 229 222 212 204 203 208 211 211 214 219 224 228
342 340 339 338 336 335 334 333 331 328 326 323 320 317 315 314 314 313 313 312 311 311 309 307 307 306 305 302 298 295 292 291 291 290 287 283 280 279 278 277 277 277 277 277 277 277 278 280 281 276 269 266 266 265 266 266 268 271 273 273 273 272 272 270 266 262 258 252 246 242 237 234 231 224 216 209 205 206 209 212 216 219 221 223 226
341 339 338 338 337 335 334 333 333 333 332 330 328 325 322 320 318 316 313 310 308 307 306 306 306 306 305 304 302 299 296 295 294 293 290 286 281 278 277 275 275 276 276 276 276 277 277 279 280 274 265 263 266 265 265 267 269 271 272 270 271 272 271 268 264 261 256 249 243 238 232 227 225 223 217 213 212 214 214 213 212 212 214 217 221
336 335 335 335 334 333 332 331 331 332 332 332 331 331 329 328 326 323 319 316 311 308 306 306 306 306 305 304 302 301 300 299 298 296 293 288 283 279 277 276 275 275 275 275 275 276 277 277 278 273 263 260 263 263 263 265 266 266 267 268 270 270 268 265 262 258 253 246 241 237 231 226 223 220 217 216 215 215 214 212 210 209 213 217 218
331 331 331 331 330 329 328 327 328 328 328 329 329 329 329 328 328 326 324 322 319 315 312 310 308 307 307 305 304 303 301 300 299 297 293 288 283 280 278 277 276 275 274 274 275 276 276 277 278 274 264 259 261 261 262 264 265 268 270 271 271 269 265 261 258 254 250 245 240 234 231 227 223 218 215 213 212 210 208 208 209 212 218 222 221
328 327 328 327 325 325 324 322 323 323 323 323 324 324 325 325 325 325 323 322 320 318 316 314 312 310 308 307 306 305 304 302 300 296 292 288 283 279 278 276 275 274 274 273 273 274 275 276 277 273 264 260 260 260 261 263 264 266 268 268 267 263 258 254 250 248 247 247 244 237 233 228 224 220 213 207 203 201 200 203 209 215 219 217 214
329 327 327 326 325 324 323 321 320 320 319 319 319 319 319 320 320 321 320 319 318 317 316 315 313 312 311 308 306 305 304 304 301 298 294 289 284 279 277 275 273 272 272 272 273 273 273 274 275 271 264 260 259 260 261 263 264 265 265 264 261 256 250 247 245 240 235 238 243 242 235 229 222 212 200 192 191 194 197 205 213 213 209 205 208
330 328 327 326 325 324 323 322 321 320 319 318 317 317 317 316 317 317 316 316 316 315 315 314 312 311 311 310 307 305 304 303 301 299 295 291 286 281 276 273 271 271 271 271 271 271 272 274 273 268 263 261 261 260 260 262 265 267 264 258 254 249 247 246 242 233 224 226 236 239 229 212 195 184 180 181 188 197 203 207 208 203 198 201 211
326 326 325 324 324 324 323 322 321 321 320 319 318 318 317 317 317 317 315 314 314 314 313 313 312 311 310 310 308 306 304 303 300 297 294 290 285 280 276 272 270 270 271 270 270 271 272 271 269 265 262 262 262 262 261 262 265 264 258 252 246 242 239 237 231 221 218 221 223 218 200 180 172 175 182 188 194 199 200 197 195 195 197 205 216
321 321 321 322 322 322 322 321 320 320 320 320 319 319 318 318 318 317 316 314 313 314 313 312 311 311 310 310 308 306 304 303 301 297 293 288 283 278 275 272 271 271 271 271 272 272 271 269 266 264 263 261 261 261 260 262 262 257 249 243 237 231 226 220 211 206 209 208 201 192 182 177 177 181 186 191 195 199 200 198 195 197 202 209 219
316 315 317 318 319 319 320 319 319 318 318 317 317 317 317 317 317 317 316 314 313 313 313 312 311 310 310 310 309 307 304 304 303 299 294 289 283 278 275 273 272 271 271 272 273 271 269 267 265 263 262 261 260 260 260 259 255 248 242 235 229 222 215 206 195 191 192 189 186 184 183 184 187 187 187 190 195 198 201 202 201 202 206 213 222
316 316 316 317 318 318 318 317 317 316 315 315 314 314 313 314 314 315 315 314 313 313 313 313 311 310 310 309 309 307 305 304 303 300 295 290 283 279 276 274 272 272 271 271 272 271 268 265 263 262 263 262 261 260 259 255 248 242 236 229 223 217 209 198 188 183 183 183 183 182 182 184 187 188 189 192 195 196 199 202 206 208 210 216 222
320 319 319 319 319 319 319 319 318 317 316 315 314 313 312 311 311 311 312 313 313 312 312 312 312 311 310 309 307 307 306 305 303 300 295 290 284 279 275 272 271 272 272 272 271 270 269 266 264 263 263 262 260 258 253 247 242 239 234 229 224 215 202 191 185 183 182 181 180 179 179 181 183 186 191 196 198 198 200 204 209 212 214 218 223
320 320 320 320 320 320 320 319 318 318 318 317 316 315 314 312 310 309 310 311 311 310 310 310 311 311 310 309 307 306 306 305 303 300 296 291 285 278 274 272 272 273 273 272 271 271 271 270 266 263 263 261 257 252 248 245 241 237 233 229 224 212 196 185 182 180 178 176 177 177 177 179 182 187 194 200 200 199 200 204 209 213 216 221 225
318 318 318 318 318 319 318 318 318 317 318 318 317 317 317 316 313 310 309 310 310 310 309 309 310 310 310 309 307 306 306 305 303 301 297 292 286 279 276 275 274 273 273 272 272 272 273 271 267 265 263 260 254 248 246 244 236 228 223 218 213 205 192 181 177 176 175 174 174 174 175 178 183 192 201 204 201 198 200 206 210 213 216 221 226
315 315 316 316 316 317 317 317 317 317 317 317 317 317 318 318 316 313 311 310 311 311 310 310 310 309 309 309 307 306 306 305 303 301 297 292 287 281 278 276 274 272 272 273 273 274 273 270 267 265 262 256 248 241 238 235 224 216 213 209 205 197 185 176 174 174 174 172 171 172 175 180 189 201 205 203 199 199 203 207 210 213 216 221 228
313 313 313 314 314 315 315 315 316 316 316 315 315 315 316 316 315 314 313 312 311 311 311 311 309 309 309 308 307 307 309 308 305 302 298 293 288 284 280 277 274 272 272 272 273 273 273 270 266 263 257 247 238 232 229 224 214 209 207 204 199 190 179 174 174 173 170 170 170 171 175 184 199 206 202 199 199 203 207 210 212 215 219 223 230
311 312 311 312 312 311 311 312 312 312 312 312 311 312 312 312 312 313 313 313 312 312 312 311 309 308 308 308 309 310 310 308 306 303 299 293 288 284 280 277 275 274 273 271 271 271 269 266 262 257 248 237 228 221 216 212 205 203 204 202 195 185 177 174 174 171 167 167 169 171 182 196 202 201 198 199 203 207 209 211 214 217 221 226 232
313 314 314 313 313 311 310 309 309 309 308 308 307 308 308 309 310 312 313 313 313 313 312 311 309 307 307 308 309 309 308 304 302 301 298 294 291 287 282 278 275 273 272 270 268 265 262 260 254 244 233 224 215 206 204 202 197 198 202 201 193 185 178 173 170 167 165 168 174 185 202 205 201 197 197 201 206 209 211 213 216 220 225 229 234
316 317 318 318 317 315 313 310 308 308 307 306 305 305 305 306 307 309 311 312 313 313 312 311 309 308 307 308 308 307 305 300 297 296 295 295 293 289 284 279 276 272 270 267 262 257 253 249 240 228 216 206 198 195 196 195 192 195 200 198 190 182 177 170 167 168 171 179 191 206 209 204 200 199 200 204 208 212 213 214 218 223 228 233 237
316 317 318 319 319 318 316 313 310 309 307 306 304 303 304 304 304 306 309 311 311 311 311 310 309 309 309 308 307 305 302 299 296 294 291 291 292 290 285 279 275 272 269 265 258 250 243 232 219 205 192 186 185 188 190 190 191 195 196 190 182 176 172 168 167 170 178 191 211 217 211 205 202 203 205 208 212 215 217 218 222 227 231 236 241
315 316 316 317 318 318 317 315 312 310 308 307 305 303 303 304 304 304 306 308 309 309 307 307 308 308 307 305 304 301 299 298 297 295 292 289 289 289 285 280 277 274 270 263 254 245 234 215 199 190 184 183 185 188 188 188 190 190 188 182 177 172 167 165 167 175 196 222 237 231 220 212 207 207 210 212 215 219 221 224 228 232 237 241 246
313 314 314 314 315 315 315 314 312 310 309 308 305 303 302 302 303 304 305 307 307 306 305 304 304 303 301 299 298 296 294 294 294 291 289 288 286 284 281 276 272 269 262 254 245 236 219 199 192 191 187 187 189 190 189 187 186 184 181 177 172 167 165 170 182 201 223 240 243 237 226 217 212 213 214 217 221 224 227 230 235 239 244 248 252
311 311 312 312 312 312 311 311 310 308 307 306 305 302 301 300 301 302 305 306 306 304 303 302 301 300 298 296 296 293 291 291 290 286 283 282 279 276 272 264 258 256 252 244 234 219 199 190 194 196 194 193 193 192 189 186 183 180 177 172 168 170 177 189 203 218 235 242 240 235 226 217 217 219 220 223 226 228 231 236 240 244 249 252 255
309 309 310 309 309 309 308 308 307 305 305 305 304 303 301 301 301 302 305 305 303 302 301 301 300 299 297 295 295 293 289 287 284 280 276 272 266 262 257 246 239 237 233 227 220 206 192 190 197 200 199 198 197 194 189 184 181 179 177 174 175 183 194 206 218 233 246 247 242 235 224 217 218 221 223 227 230 232 236 240 244 249 253 255 256
308 308 308 308 307 307 306 306 306 305 305 306 306 305 305 304 304 304 305 304 302 300 299 299 299 299 297 294 292 290 286 280 274 269 265 257 249 244 237 228 219 208 202 204 207 201 194 194 198 201 202 202 200 195 189 185 182 182 183 186 192 201 210 221 234 247 253 250 242 232 223 220 221 225 228 233 236 238 242 247 250 254 257 258 259
307 307 307 307 306 306 306 305 305 305 305 305 305 305 306 305 303 303 302 302 301 299 298 297 297 298 297 294 290 285 279 270 259 251 244 236 228 223 216 203 182 179 190 199 204 201 197 197 199 202 205 207 204 198 193 190 188 189 193 200 209 217 224 236 249 256 257 252 241 229 222 222 225 230 234 238 241 245 249 253 257 259 259 260 261
308 307 307 306 305 305 305 304 303 303 302 302 302 303 303 302 300 299 299 299 299 298 297 297 297 297 296 292 287 280 269 253 237 229 225 216 204 197 189 170 160 174 191 202 204 202 201 200 201 204 208 210 209 204 200 199 198 200 207 215 222 229 239 249 257 261 260 252 240 229 224 226 229 234 239 242 246 251 256 259 261 261 261 262 263
308 307 306 306 305 305 304 302 301 300 299 299 298 299 299 298 297 296 296 296 295 296 297 297 297 296 292 287 279 266 247 228 218 218 214 202 189 183 177 168 171 184 196 201 200 202 205 205 205 207 210 213 212 209 208 209 210 214 221 229 235 244 253 258 263 265 260 250 239 230 228 231 234 238 242 246 250 256 260 262 263 263 263 265 265
308 307 306 305 305 304 303 302 301 300 299 297 296 295 295 295 295 295 294 293 293 294 295 295 294 292 288 280 266 244 216 206 214 215 202 189 183 182 180 178 181 190 199 200 196 198 203 206 208 210 212 213 213 211 212 215 218 224 232 241 248 255 259 262 264 262 253 243 236 233 233 235 239 243 247 252 256 261 264 264 264 264 265 266 267
307 306 305 304 304 303 302 302 301 301 300 297 295 294 294 293 293 292 291 291 292 292 292 291 288 287 284 272 249 219 196 199 212 204 186 180 185 188 188 186 188 194 199 198 193 191 194 199 203 207 210 212 213 214 216 220 225 232 240 248 253 257 260 261 259 251 240 233 232 233 236 239 243 248 253 258 262 265 265 265 265 266 267 269 271
308 307 306 305 304 303 302 302 301 301 299 297 295 294 293 291 290 290 289 290 291 290 288 286 282 281 278 261 232 204 191 200 206 195 184 184 191 196 194 188 188 191 191 189 188 186 187 192 197 202 207 211 215 219 223 227 233 239 244 249 253 256 257 256 250 242 234 233 234 237 240 244 249 254 258 260 263 264 264 264 266 268 269 271 272
310 308 307 306 306 304 303 302 301 300 299 297 295 294 292 289 288 287 286 287 288 287 284 280 277 274 269 251 224 201 196 204 206 196 189 190 195 203 206 197 193 194 190 189 190 190 191 195 199 202 208 213 217 221 226 231 237 242 246 249 251 251 249 245 239 235 235 236 239 242 246 250 253 256 257 259 261 262 264 266 268 270 272 274 277
310 309 307 307 307 305 303 302 300 298 297 296 294 293 291 288 286 284 283 284 285 284 280 275 271 268 261 247 224 206 202 207 208 202 197 195 198 205 212 212 211 213 210 208 208 207 209 211 212 213 217 221 225 229 234 238 242 245 246 246 244 241 238 235 233 234 237 239 242 246 249 251 253 255 257 259 261 263 267 270 272 275 278 280 282
310 309 308 308 307 306 304 302 300 297 295 294 292 291 290 288 284 281 280 281 282 280 275 269 264 260 253 243 229 214 207 208 211 210 208 205 205 210 216 219 220 221 219 219 220 221 223 226 228 230 233 235 237 239 241 243 244 243 242 240 237 235 235 235 235 236 238 241 243 247 249 251 254 257 260 263 266 269 273 276 278 280 281 281 281
308 308 307 306 306 305 304 302 300 298 296 294 292 291 289 285 281 279 279 279 279 276 269 262 257 253 247 240 231 220 211 210 213 215 217 218 218 221 225 230 232 232 232 231 231 231 232 234 236 239 240 240 239 238 237 236 237 236 235 235 236 235 236 237 237 239 242 244 246 249 252 255 259 263 266 270 274 277 278 280 281 281 282 282 281
306 306 305 304 303 303 303 301 300 298 297 296 293 289 285 281 278 277 277 276 274 270 263 255 251 248 244 238 231 223 215 213 215 218 221 225 229 234 238 241 243 246 249 250 247 243 240 238 237 237 237 235 232 230 228 227 227 228 230 232 234 235 236 237 240 242 246 249 252 255 259 263 267 271 274 276 279 280 281 282 282 283 282 282 280
306 305 304 303 302 302 301 300 299 298 297 296 293 288 283 279 277 278 277 274 269 263 256 249 245 244 241 236 230 224 217 214 216 220 224 228 233 237 242 245 248 251 253 253 248 241 234 230 227 225 224 224 223 224 226 227 227 229 231 232 234 237 239 242 246 248 251 255 258 261 266 270 273 276 278 279 280 282 283 283 283 282 281 280 279
307 306 304 303 302 302 301 300 298 297 296 295 291 286 281 277 278 279 277 272 266 259 253 245 240 238 234 228 223 219 215 212 215 219 225 230 233 234 237 240 242 244 243 239 233 226 220 218 218 217 219 222 224 226 230 233 234 237 239 240 241 243 245 247 250 252 255 259 263 267 271 274 276 277 279 281 282 282 282 281 280 279 278 277 276
309 307 305 303 302 301 301 300 298 297 295 292 287 282 278 277 279 279 276 271 264 257 250 242 237 233 227 218 211 209 209 210 214 219 224 229 231 231 232 233 232 230 227 223 220 217 216 217 220 222 225 229 232 234 237 239 240 241 243 243 244 245 247 249 253 257 261 265 269 272 274 275 276 277 279 280 280 280 279 279 278 277 275 274 274
314 310 307 305 303 302 301 300 298 295 292 289 284 279 276 277 278 277 274 269 261 253 245 239 234 229 221 212 206 204 204 206 210 214 219 223 224 224 224 224 222 220 219 219 220 220 221 222 225 228 231 234 236 237 239 240 240 242 243 245 247 250 253 257 261 264 267 269 271 272 273 274 275 276 278 278 278 279 278 278 276 275 273 272 272
319 316 312 308 304 302 301 300 297 294 291 288 282 277 277 278 277 274 271 266 257 248 241 236 231 225 217 210 205 203 204 205 209 213 217 221 222 221 220 220 219 218 219 220 220 221 223 226 229 232 235 236 237 238 240 241 244 246 248 251 254 258 260 263 265 267 268 270 272 273 275 276 277 278 280 280 280 279 278 276 275 273 272 272 272
326 322 318 313 309 305 303 300 297 294 292 289 284 280 278 278 275 271 267 260 251 243 237 234 229 222 216 211 207 205 205 207 210 216 219 222 222 221 219 218 218 218 218 220 222 225 228 231 233 236 237 238 240 242 245 248 251 254 256 259 261 263 264 266 268 270 272 274 276 276 278 279 280 281 281 280 278 278 276 274 273 272 272 272 272
337 332 327 322 316 312 309 304 301 299 297 294 290 285 281 277 273 268 262 254 246 239 234 231 225 219 215 212 209 207 207 210 214 218 221 221 221 219 217 216 217 218 220 224 227 230 233 235 237 239 242 244 246 249 252 254 257 259 260 262 264 266 268 270 272 273 274 276 278 279 280 281 281 280 279 277 276 275 274 273 272 272 272 272 271